Overview Statistics Trail Chart Weather Telemetry Raw packets
 

This is the latest recevied weather packets stored in our database for station/object N5JXS. If no packets are shown the sender has not sent any weather packets the latest 10 day(s).

<< 1 2 3 4 >>
Time Temp. Humidity Pressure Rain* Wind** Luminosity Snow
1788635157 29.44° C 26% 1026.2 hPa 0 mm - 757 W/m² -
1788634857 28.89° C 27% 1026 hPa 0 mm - 721 W/m² -
1788634556 28.89° C 27% 1026.2 hPa 0 mm - 694 W/m² -
1788634250 28.33° C 28% 1025.8 hPa 0 mm - 658 W/m² -
1788633945 28.33° C 28% 1026.1 hPa 0 mm - 606 W/m² -
1788633644 28.89° C 27% 1026.3 hPa 0 mm - 138 W/m² -
1788633338 28.89° C 27% 1026.2 hPa 0 mm - 584 W/m² -
1788633033 28.89° C 27% 1026.2 hPa 0 mm - 593 W/m² -
1788632733 28.89° C 27% 1026.3 hPa 0 mm - 637 W/m² -
1788632427 28.89° C 27% 1026.2 hPa 0 mm - 655 W/m² -
1788632122 28.89° C 27% 1026.5 hPa 0 mm - 652 W/m² -
1788631821 28.89° C 27% 1026.3 hPa 0 mm - 649 W/m² -
1788631516 28.89° C 26% 1026.1 hPa 0 mm - 672 W/m² -
1788631212 28.89° C 27% 1026.7 hPa 0 mm - 672 W/m² -
1788630911 28.33° C 27% 1026.6 hPa 0 mm - 625 W/m² -
1788630607 27.78° C 28% 1026.6 hPa 0 mm - 609 W/m² -
1788630302 27.78° C 28% 1026.6 hPa 0 mm - 638 W/m² -
1788629997 27.78° C 28% 1026.8 hPa 0 mm - 642 W/m² -
1788629693 27.78° C 28% 1026.7 hPa 0 mm - 636 W/m² -
1788629389 27.78° C 28% 1026.8 hPa 0 mm - 620 W/m² -
1788629087 27.78° C 28% 1026.7 hPa 0 mm - 643 W/m² -
1788628783 27.22° C 28% 1026.7 hPa 0 mm - 636 W/m² -
1788628479 26.67° C 29% 1026.7 hPa 0 mm - 632 W/m² -
1788628175 26.67° C 30% 1026.6 hPa 0 mm - 602 W/m² -
1788627871 26.67° C 29% 1026.7 hPa 0 mm - 550 W/m² -

* Rain latest hour (hover to see other rain measurements)
** Current wind speed in m/s (hover to see current wind gust speed)